Location: Caltech
(34.1382°N, 118.1253°W)
Time: 14:04:55
(UTC-07:00)

Iridium 14 - Visible Passes

Search period start: 23 April 2014 00:00
Search period end: 03 May 2014 00:00
Orbit: 708 x 711 km, 86.5° (Epoch: 23 April)

Date Brightness Start Highest point End Pass type
(mag) Time Alt. Az. Time Alt. Az. Time Alt. Az.
23 Apr 7.7 20:11:39 10° NE 20:13:34 12° ENE 20:14:59 11° E visible
23 Apr 6.4 21:48:25 10° NNW 21:53:08 53° W 21:54:04 46° SW visible
24 Apr 6.2 20:54:58 10° NNE 20:59:35 43° E 21:01:06 33° SE visible
24 Apr 8.4 22:35:45 10° NW 22:38:25 15° W 22:40:11 13° WSW visible
25 Apr 7.6 20:03:23 10° NE 20:05:41 13° ENE 20:07:59 10° ESE visible
25 Apr 6.6 21:40:33 10° NNW 21:45:13 49° W 21:47:15 30° SW visible
26 Apr 6.1 20:47:00 10° N 20:51:41 47° E 20:54:20 24° SSE visible
26 Apr 8.5 22:28:06 10° NW 22:30:28 14° W 22:32:49 10° WSW visible
27 Apr 6.8 21:32:40 10° NNW 21:37:17 45° W 21:40:32 18° SSW visible
28 Apr 6.0 20:39:03 10° N 20:43:47 52° E 20:47:42 15° SSE visible
28 Apr 8.6 22:20:30 10° NW 22:22:30 13° W 22:24:30 10° WSW visible
29 Apr 7.0 21:24:48 10° NNW 21:29:21 41° W 21:33:53 10° SSW visible
30 Apr 5.9 20:31:05 10° N 20:35:52 56° E 20:40:37 10° SSE visible
30 Apr 8.7 22:13:01 10° WNW 22:14:32 11° W 22:16:04 10° W visible
01 May 7.2 21:16:56 10° NNW 21:21:24 38° W 21:25:52 10° SSW visible
02 May 5.9 20:23:07 10° N 20:27:56 62° E 20:32:43 10° SSE visible
02 May 8.9 22:05:47 10° WNW 22:06:34 10° WNW 22:07:21 10° W visible
